This is the latest recevied weather packets stored in our database for station/object XE2G-31. If no packets are shown the sender has not sent any weather packets the latest 10 day(s).
| Time | Temp. | Humidity | Pressure | Rain* | Wind** | Luminosity | Snow |
|---|---|---|---|---|---|---|---|
| 1777936673 | 26.11° C | 54% | 869 hPa | - | - | - | - |
| 1777935726 | 26.11° C | 53% | 869 hPa | - | - | - | - |
| 1777934779 | 26.67° C | 53% | 869 hPa | - | - | - | - |
| 1777933832 | 26.67° C | 52% | 869 hPa | - | - | - | - |
| 1777932886 | 27.22° C | 51% | 869 hPa | - | - | - | - |
| 1777931939 | 27.22° C | 52% | 869 hPa | - | - | - | - |
| 1777930992 | 27.78° C | 51% | 869 hPa | - | - | - | - |
| 1777930045 | 27.78° C | 52% | 869 hPa | - | - | - | - |
| 1777929098 | 27.22° C | 52% | 870 hPa | - | - | - | - |
| 1777928151 | 27.78° C | 49% | 869 hPa | - | - | - | - |
| 1777927205 | 27.78° C | 49% | 870 hPa | - | - | - | - |
| 1777926258 | 28.33° C | 47% | 870 hPa | - | - | - | - |
| 1777925311 | 28.89° C | 46% | 870 hPa | - | - | - | - |
| 1777924364 | 28.89° C | 47% | 870 hPa | - | - | - | - |
| 1777923417 | 28.89° C | 46% | 870 hPa | - | - | - | - |
| 1777922470 | 28.33° C | 47% | 870 hPa | - | - | - | - |
| 1777921524 | 28.89° C | 46% | 871 hPa | - | - | - | - |
| 1777920577 | 29.44° C | 45% | 870 hPa | - | - | - | - |
| 1777919630 | 28.89° C | 48% | 871 hPa | - | - | - | - |
| 1777918683 | 26.67° C | 50% | 871 hPa | - | - | - | - |
| 1777917736 | 27.78° C | 49% | 871 hPa | - | - | - | - |
| 1777916789 | 27.22° C | 51% | 871 hPa | - | - | - | - |
| 1777915843 | 28.33° C | 49% | 871 hPa | - | - | - | - |
| 1777914896 | 25° C | 52% | 871 hPa | - | - | - | - |
| 1777913002 | 27.22° C | 49% | 871 hPa | - | - | - | - |
* Rain since midnight (hover to see other rain measurements)
** Current wind speed in m/s (hover to see current wind gust speed)